Location: Wangen+im+Allg�u
(47.7098°N, 9.8383°E)
Time: 04:29:52
(UTC+01:00)

ISS - Pass Details

Date: 13 January 2018
Orbit: 401 x 406 km, 51.6° (Epoch: 17 January)

Event Time Altitude Azimuth Distance (km) Brightness Sun altitude
Exits shadow 07:07:22 12° 265° (W) 1,376 -1.7 -9.6°
Maximum altitude 07:09:28 19° 222° (SW) 1,041 -1.9 -9.3°
Drops below altitude 10° 07:11:51 10° 175° (S) 1,458 -0.6 -8.9°
Sets 07:14:19 0° 156° (SSE) 2,314 0.8 -8.5°
